Flag for France Weather past 2 weeks in Boulogne-Billancourt, France

Now
50 °F

Light rain. Passing clouds.


Feels Like: 47 °F
Forecast: 40 / 50 °F
Wind: 8 mph from Southwest

Location: Paris-Orly

Current Time: Mar 1, 2015 at 9:07:29 PM

Latest Report: Mar 1, 2015 at 8:30 PM


Visibility: 4 mi

Pressure: 29.68 "Hg

Humidity: 94%

Dew point: 48 °F

Location of Boulogne-BillancourtLocation

Historic Weather in Boulogne-Billancourt — Graph

°F

Boulogne-Billancourt temperature yesterday

Maximum temperature yesterday: 50 °F (at 2:30 PM)
Minimum temperature yesterday: 32 °F (at 1:00 AM)
Average temperature yesterday: 41 °F

Past Weeks' High & Low Weather Summary

 TemperatureHumidityPressure
High54 °F (Mar 1, 1:00 PM)100% (Feb 14, 9:00 PM)30.74 "Hg (Feb 14, 9:00 PM)
Low27 °F (Feb 22, 7:00 AM)40% (Feb 27, 5:00 PM)29.45 "Hg (Feb 23, 5:00 AM)
Average42 °F86%30.00 "Hg
* Reported Feb 14 8:00 PM — Mar 1 8:00 PM, Boulogne-Billancourt, Weather by CustomWeather, © 2015

Note: Actual official high and low records may vary slightly from our data, if they occured in-between our weather recording intervals... More about our weather records

Advertising

Boulogne-Billancourt weather history for previous 24 hours

 ConditionsComfort  
Time TempWeatherWind HumidityBarometerVisibility
8:00 PM
Sun, Mar 1
50 °FLight rain. Partly cloudy.12 mph88%29.71 "HgN/A
7:30 PM50 °FLight rain. Clear.13 mph82%29.71 "HgN/A
7:00 PM50 °FPassing clouds.10 mph76%29.71 "HgN/A
6:30 PM50 °FScattered clouds.8 mph76%29.71 "HgN/A
6:00 PM50 °FPartly sunny.10 mph76%29.74 "HgN/A
5:30 PM52 °FPartly sunny.12 mph72%29.74 "HgN/A
5:00 PM52 °FPartly sunny.15 mph67%29.74 "HgN/A
4:30 PM52 °FPartly sunny.15 mph67%29.77 "HgN/A
4:00 PM54 °FPartly sunny.15 mph63%29.77 "HgN/A
3:30 PM54 °FPartly sunny.16 mph63%29.77 "HgN/A
3:00 PM54 °FPartly sunny.14 mph63%29.77 "HgN/A
2:30 PM54 °FPartly sunny.16 mph63%29.80 "HgN/A
2:00 PM54 °FBroken clouds.12 mph63%29.80 "HgN/A
1:30 PM54 °FPartly sunny.13 mph67%29.80 "HgN/A
1:00 PM54 °FPartly sunny.12 mph63%29.80 "HgN/A
12:30 PM52 °FPartly sunny.14 mph67%29.80 "HgN/A
12:00 PM52 °FPartly sunny.13 mph67%29.83 "HgN/A
11:30 AM52 °FBroken clouds.14 mph67%29.83 "HgN/A
11:00 AM52 °FPartly sunny.13 mph72%29.80 "HgN/A
10:30 AM52 °FPartly sunny.12 mph77%29.80 "HgN/A
10:00 AM52 °FBroken clouds.12 mph82%29.80 "HgN/A
9:30 AM50 °FBroken clouds.9 mph88%29.80 "HgN/A
9:00 AM50 °FPartly sunny.13 mph88%29.80 "HgN/A
8:30 AM48 °FPartly sunny.7 mph100%29.77 "HgN/A
8:00 AM46 °FScattered clouds.3 mph93%29.77 "HgN/A
7:30 AM48 °FPassing clouds.7 mph94%29.74 "HgN/A
7:00 AM48 °FPartly cloudy.6 mph94%29.74 "HgN/A
6:30 AM50 °FPassing clouds.6 mph94%29.77 "HgN/A
6:00 AM50 °FPassing clouds.12 mph94%29.74 "HgN/A
5:30 AM50 °FPassing clouds.13 mph94%29.74 "HgN/A
5:00 AM48 °FPassing clouds.12 mph100%29.71 "HgN/A
4:30 AM48 °FPassing clouds.13 mph100%29.71 "Hg4 mi
4:00 AM48 °FPassing clouds.13 mph94%29.71 "HgN/A
3:30 AM48 °FPassing clouds.14 mph94%29.71 "HgN/A
3:00 AM46 °FPassing clouds.13 mph100%29.74 "Hg5 mi
2:30 AM46 °FPassing clouds.12 mph93%29.74 "Hg2 mi
2:00 AM46 °FLight rain. Low clouds.13 mph93%29.74 "HgN/A
1:30 AM46 °FLight rain. Low clouds.15 mph93%29.77 "HgN/A
1:00 AM45 °FLight rain. Low clouds.14 mph100%29.77 "Hg4 mi
12:30 AM45 °FLight rain. Mostly cloudy.13 mph100%29.77 "Hg4 mi
12:00 AM45 °FLight rain. Low clouds.15 mph93%29.80 "Hg4 mi
11:30 PM
Sat, Feb 28
46 °FLight rain. Low clouds.15 mph87%29.80 "HgN/A
11:00 PM45 °FLow clouds.13 mph93%29.83 "HgN/A
10:30 PM45 °FLow clouds.13 mph93%29.83 "HgN/A
10:00 PM45 °FLow clouds.14 mph93%29.86 "HgN/A
9:30 PM45 °FPassing clouds.12 mph87%29.86 "HgN/A
9:00 PM45 °FPassing clouds.13 mph87%29.89 "HgN/A
Weather by CustomWeather, © 2015

See weather overviewHow to use our weather pages